Location: Portage
(46.6667°N, 64.0667°W)
Time: 17:57:16
(UTC+00:00)

Daily predictions for brighter satellites

Satellite Brightness Start Highest point End
(mag) Time Altitude Azimuth Time Altitude Azimuth Time Altitude Azimuth
Cosmos 1470 Rocket 4.3 21:25:12 10° N 21:29:04 31° ENE 21:32:55 10° SE
ISS -1.9 21:27:42 10° S 21:30:10 19° SE 21:32:39 10° E
NOSS 3-2 (C) 4.4 21:23:03 10° NW 21:30:28 78° SW 21:39:21 10° SSE
ATLAS 5 CENTAUR R/B 0.7 21:28:23 10° SSW 21:31:18 58° SE 21:34:23 10° NE
Meteor 1-13 Rocket 4.5 21:26:45 10° S 21:32:15 52° E 21:37:53 10° NNE
NOSS 3-4 (A) 4.0 21:27:44 10° S 21:32:16 30° ESE 21:37:06 10° NE
NOSS 3-4 (C) 4.1 21:27:53 10° S 21:32:25 30° ESE 21:37:15 10° NE
NOSS 2-3 (E) 4.3 21:28:48 10° NW 21:33:55 75° NE 21:40:53 10° SE
Meteor 1-22 Rocket 4.2 21:28:23 10° N 21:34:02 67° ENE 21:39:25 10° SSE
Cosmos 1758 4.0 21:32:32 10° NNW 21:36:07 52° W 21:39:39 10° S
Cosmos 304 Rocket 4.3 21:36:17 10° NNW 21:40:59 63° WSW 21:45:39 10° S
ATLAS 3B R/B 4.2 21:34:48 10° W 21:41:38 32° NNW 21:48:37 10° NE
Cosmos 1821 Rocket 4.5 21:36:19 10° N 21:42:01 36° ENE 21:47:35 10° SE
Cosmos 2251 Rocket 4.3 21:38:10 10° NNW 21:43:20 57° WSW 21:48:26 10° S
Cosmos 1697 Rocket 4.4 21:44:16 10° N 21:46:43 13° NE 21:48:45 11° ENE
USA 276 3.4 21:45:47 10° S 21:47:28 18° SE 21:48:58 12° E
Cosmos 1603 4.3 21:42:21 10° S 21:47:29 37° ESE 21:52:36 10° NE
Meteor 1-28 Rocket 4.0 21:47:29 10° N 21:50:38 45° WNW 21:53:46 10° SW
BREEZE-M DEB (TANK) 4.3 21:46:11 10° WSW 21:51:34 87° NNW 22:09:47 14° ENE
RESURS DK-1 4.1 21:50:08 10° SE 21:52:02 13° ESE 21:52:58 12° E
CZ-2D R/B 4.2 21:50:20 10° ESE 21:53:31 25° ENE 21:56:42 10° N
Cosmos 332 Rocket 4.0 21:49:13 10° NNW 21:53:51 47° ENE 21:58:28 10° SE
Cosmos 2181 Rocket 4.3 21:48:34 10° SSE 21:54:19 44° E 22:00:10 10° NNE
BREEZE-M DEB (TANK) 3.3 21:49:55 10° W 21:55:47 63° NNW 21:59:23 14° ENE
MOS 1 Rocket 3.6 21:50:37 10° SSE 21:55:55 87° WSW 22:01:03 10° NNW
SL-16 R/B 3.4 21:50:36 10° N 21:56:32 51° WNW 22:02:27 10° SW
Cosmos 2056 Rocket 3.7 21:52:53 10° SSW 21:58:01 75° WNW 22:03:08 10° NNE
ARIANE 5 R/B 2.7 21:58:00 10° SSE 22:03:13 83° WSW 22:08:29 10° NNW
USA 59 Rocket 1.6 22:02:38 10° N 22:03:43 12° NNE 22:03:43 12° NNE
Cosmos 2369 Rocket 3.7 21:58:38 10° NW 22:03:57 41° WSW 22:09:12 10° S
Cosmos 1633 Rocket 3.2 21:59:59 10° NNW 22:04:18 76° W 22:08:35 10° S
UNK 4.1 22:01:34 10° N 22:06:03 63° WNW 22:10:30 10° SSW
Landsat 7 4.4 22:02:40 10° S 22:07:15 59° W 22:11:52 10° NNW
USA 215 4.0 22:03:51 15° ENE 22:08:43 36° SE 22:14:37 10° SSW
COSMO-SKYMED 1 3.2 22:07:16 14° NE 22:10:17 30° E 22:13:54 10° SSE
Cosmos 1943 3.4 22:05:12 10° SSW 22:10:49 76° WNW 22:16:31 10° NNE
SAR-Lupe-1 3.9 22:07:55 10° SSE 22:11:28 77° ENE 22:15:02 10° N
Cosmos 2366 rocket 4.0 22:05:42 10° N 22:12:05 87° E 22:18:27 10° S
Resurs 1-3 3.8 22:09:01 10° SE 22:13:06 45° ENE 22:17:13 10° N
SL-4 R/B 4.2 22:10:06 10° W 22:13:25 25° SW 22:16:37 10° SSE
SMAP 4.4 22:09:32 10° S 22:13:57 43° W 22:18:25 10° NNW
SL-24 R/B - RUBIN 2 4.0 22:10:17 10° NNW 22:14:24 39° NE 22:17:21 17° ESE
Cosmos 2218 Rocket 4.0 22:08:50 10° N 22:15:17 85° E 22:21:41 10° S
DNEPR-1 R/B 3.9 22:13:03 10° SSW 22:17:19 44° ESE 22:19:34 23° ENE
SJ-12 4.5 22:15:49 10° S 22:19:32 56° W 22:23:19 10° NNW
Cosmos 968 Rocket 3.5 22:20:24 10° NNW 22:25:34 84° WSW 22:30:41 10° SSE
BREEZE-M DEB (TANK) 2.8 22:25:30 10° SW 22:27:54 52° SE 22:29:34 29° E
SAR-Lupe-4 4.0 22:24:34 10° S 22:28:06 63° WSW 22:31:41 10° NNW
SKYMED 2 3.5 22:25:02 10° NNE 22:29:25 79° ESE 22:33:45 10° S
Cosmos 2341 Rocket 4.4 22:23:17 10° NNW 22:29:33 66° W 22:35:44 10° S
Meteor 2-13 Rocket 4.4 22:23:34 10° S 22:29:39 67° E 22:35:46 10° NNE
SL-16 R/B 4.1 22:27:31 10° WSW 22:32:06 25° NW 22:36:44 10° N
SJ-7 4.2 22:30:25 10° SSE 22:34:08 58° ENE 22:37:52 10° N
Cosmos 1741 Rocket 3.9 22:31:01 10° NNW 22:36:16 84° ENE 22:41:28 10° SSE
Cosmos 1331 Rocket 3.9 22:31:24 10° SSW 22:36:31 87° ESE 22:41:03 14° NNE
Meteor 1-23 Rocket 4.4 22:34:38 10° SSW 22:40:18 72° WNW 22:45:57 10° N
SPOT 1/Viking Rocket 3.9 22:35:11 10° S 22:40:19 67° WSW 22:45:27 10° NNW
IRAS Rocket 4.3 22:35:30 10° SE 22:40:48 51° ENE 22:46:10 10° N
USA 238 DEB 4.1 22:34:22 10° NW 22:41:50 81° SW 22:49:55 10° SSE
USA 238 4.1 22:34:29 10° NW 22:41:56 81° SW 22:50:02 10° SSE
Nadezhda 3 Rocket 4.0 22:36:00 10° SSE 22:41:57 54° E 22:47:55 10° NNE
Cosmos 1703 3.9 22:39:03 10° SSW 22:42:15 46° WNW 22:45:29 10° N
USA 267 3.4 22:39:32 26° E 22:43:15 55° NNE 22:49:35 10° NW
Cosmos 1850 Rocket 4.1 22:38:42 10° NNW 22:44:01 80° WSW 22:49:19 10° SSE
Cosmos 1515 Rocket 4.0 22:41:10 10° SSW 22:45:32 64° W 22:49:57 10° N
Cosmos 1302 Rocket 4.2 22:41:23 10° S 22:46:23 47° ESE 22:48:15 33° NE
Cosmos 1953 3.7 22:43:03 10° NNW 22:46:29 37° W 22:49:54 10° SSW
YAOGAN 1 2.5 22:42:23 10° SSE 22:46:39 83° W 22:50:56 10° NNW
Radarsat Rocket 3.9 22:41:39 10° SSE 22:47:59 81° ENE 22:53:54 10° NNW
Cosmos 1340 Rocket 2.5 22:44:28 10° N 22:48:16 74° ENE 22:52:06 10° SSE
BREEZE-M DEB (TANK) 3.2 22:44:39 10° W 22:49:13 59° N 22:50:07 44° NE
Okean 3 3.3 22:45:49 10° S 22:49:48 59° E 22:50:43 46° NE
PSLV R/B 3.3 22:45:41 10° SSE 22:49:48 78° ENE 22:53:59 10° N
Resurs 01 Rocket 1.7 22:48:22 29° SE 22:50:12 48° ENE 22:54:25 10° N
Cosmos 1110 Rocket 4.3 22:47:50 10° SSW 22:53:01 65° WNW 22:57:28 14° NNE
Cosmos 292 Rocket 3.6 22:51:11 10° NNW 22:55:55 89° NE 23:00:36 10° SSE
NOAA 6 3.9 22:52:14 10° SSE 22:57:19 80° ENE 23:02:27 10° NNW
SL-19 R/B 4.5 22:51:59 10° SSE 22:58:10 87° ENE 23:04:31 10° NNW
Cosmos 1656 3.5 22:53:38 10° NNW 22:59:17 75° ENE 23:03:53 15° SSE
Cosmos 1452 Rocket 3.6 22:58:25 10° SSW 23:03:39 74° WNW 23:07:12 21° NNE
ISS -3.3 23:03:17 10° WSW 23:06:07 60° W 23:06:07 60° W
Cosmos 1980 Rocket 3.9 23:02:43 10° N 23:04:46 17° NNE 23:04:46 17° NNE
COSMOS 2455 3.8 23:03:52 10° NNW 23:08:30 29° NNE 23:08:30 29° NNE
BREEZE-M (TANK) 3.6 23:08:28 10° W 23:09:31 27° W 23:09:31 27° W
ATLAS 5 CENTAUR R/B 3.3 23:12:10 10° WNW 23:14:00 15° NNW 23:14:11 15° NNW
NOSS 3-4 (A) 3.8 23:17:34 10° WSW 23:22:44 51° NW 23:25:02 32° NNE
NOSS 3-4 (C) 3.8 23:17:41 10° WSW 23:22:53 51° NW 23:25:12 32° NNE
RESURS DK-1 2.9 23:24:58 10° SW 23:28:17 53° WSW 23:28:17 53° WSW
Cosmos 1697 Rocket 3.4 23:26:33 10° NNW 23:30:30 40° N 23:30:30 40° N
ATLAS 3B R/B 4.4 23:29:07 10° NW 23:35:01 22° N 23:37:07 20° NNE
Cosmos 1833 Rocket 3.4 23:35:37 10° SSW 23:39:19 41° S 23:39:19 41° S
COSMO-SKYMED 1 4.4 23:43:33 19° NNW 23:45:29 27° WNW 23:48:56 10° SW
USA 215 3.2 23:51:11 67° NNE 23:52:05 78° NNW 23:58:38 10° WSW
